Volver al catálogo

CZ-4C R/B

ActivoLEO
NORAD 64754·ROCKET BODY·🇨🇳 China

Lanzado Jul 3, 2025 desde Xichang Satellite Launch Center

Loading…

Próximos Pases (próximas 24 horas)

TLE

ActualizadoSource: Space-Track

Época: Sep 14, 2026, 19:13 UTC

1 64754U 25145B   26257.80125912  .00000727  00000-0  35360-4 0  9990
2 64754  10.9865 332.0753 0120897  47.2381 313.7955 14.56770238 63906

Sigue CZ-4C R/B en tiempo real con AllMySat

Download on the App Store